TimeMST,TemperatureF,Dew PointF,Humidity,Sea Level PressureIn,VisibilityMPH,Wind Direction,Wind SpeedMPH,Gust SpeedMPH,PrecipitationIn,Events,Conditions,WindDirDegrees,DateUTC
12:55 AM,48.0,14.0,26,30.06,10.0,NNW,5.8,-,N/A,,Clear,340,2013-01-03 07:55:00
1:55 AM,46.0,15.1,29,30.06,10.0,NW,6.9,-,N/A,,Clear,310,2013-01-03 08:55:00
2:55 AM,46.0,14.0,28,30.06,10.0,WNW,4.6,-,N/A,,Clear,300,2013-01-03 09:55:00
3:55 AM,46.0,14.0,28,30.06,10.0,NW,3.5,-,N/A,,Clear,320,2013-01-03 10:55:00
4:55 AM,48.9,12.9,24,30.06,10.0,North,9.2,-,N/A,,Clear,350,2013-01-03 11:55:00
5:55 AM,48.9,14.0,25,30.07,10.0,North,6.9,-,N/A,,Clear,10,2013-01-03 12:55:00
6:55 AM,48.9,14.0,25,30.08,10.0,North,12.7,-,N/A,,Clear,10,2013-01-03 13:55:00
7:55 AM,48.0,14.0,26,30.10,10.0,NNE,8.1,-,N/A,,Clear,20,2013-01-03 14:55:00
8:00 AM,-9999,-9999,N/A,-9999,-9999.0,North,-9999.0,-,N/A,,Unknown,0,2013-01-03 15:00:00
8:55 AM,52.0,15.1,23,30.14,10.0,NNE,10.4,-,N/A,,Clear,20,2013-01-03 15:55:00
9:55 AM,55.0,15.1,21,30.16,10.0,Calm,Calm,-,N/A,,Clear,0,2013-01-03 16:55:00
10:55 AM,57.9,12.9,17,30.18,10.0,North,12.7,18.4,N/A,,Clear,360,2013-01-03 17:55:00
11:55 AM,59.0,12.0,16,30.17,10.0,North,13.8,-,N/A,,Clear,350,2013-01-03 18:55:00
12:55 PM,61.0,10.9,14,30.14,10.0,North,16.1,21.9,N/A,,Clear,360,2013-01-03 19:55:00
1:55 PM,62.1,10.0,13,30.12,10.0,North,13.8,-,N/A,,Clear,360,2013-01-03 20:55:00
2:55 PM,64.0,8.1,11,30.13,10.0,North,16.1,21.9,N/A,,Clear,360,2013-01-03 21:55:00
3:55 PM,63.0,7.0,11,30.13,10.0,North,15.0,26.5,N/A,,Clear,360,2013-01-03 22:55:00
4:55 PM,62.1,8.1,12,30.13,10.0,North,8.1,-,N/A,,Clear,360,2013-01-03 23:55:00
5:55 PM,59.0,7.0,13,30.14,10.0,North,10.4,-,N/A,,Clear,350,2013-01-04 00:55:00
6:55 PM,55.9,8.1,15,30.16,10.0,NNW,6.9,-,N/A,,Clear,340,2013-01-04 01:55:00
7:55 PM,55.0,7.0,15,30.17,10.0,NNW,8.1,-,N/A,,Clear,340,2013-01-04 02:55:00
8:55 PM,55.0,6.1,14,30.18,10.0,North,6.9,-,N/A,,Clear,350,2013-01-04 03:55:00
9:55 PM,48.9,10.0,21,30.19,10.0,WNW,4.6,-,N/A,,Clear,300,2013-01-04 04:55:00
10:55 PM,46.0,10.9,24,30.20,10.0,WNW,5.8,-,N/A,,Clear,300,2013-01-04 05:55:00
11:55 PM,50.0,6.1,17,30.20,10.0,North,6.9,-,N/A,,Clear,350,2013-01-04 06:55:00